Garrison, ND

1:49 PM CDT on July 24, 2017 (GMT -0500)
Garrison

Weather History for KN60 - March, 2013

Change the Weather History Date:

Friday, March 29, 2013

  Actual Average Record
Temperature  
Mean Temperature 24 °F -  
Max Temperature 39 °F - 65 °F (2014)
Min Temperature 9 °F - 9 °F (2013)
Degree Days  
Heating Degree Days 41    
Month to date heating degree days 1428  
Cooling Degree Days 0    
Month to date cooling degree days 0  
Year to date cooling degree days 0  
Moisture  
Dew Point 22 °F    
Average Humidity 90    
Maximum Humidity 96    
Minimum Humidity 83    
Precipitation  
Precipitation 0.01 in - 0.18 in (2005)
Month to date precipitation 0.96  
Year to date precipitation 2.05  
Sea Level Pressure  
Sea Level Pressure 30.15 in    
Wind  
Wind Speed 3 mph (ENE)    
Max Wind Speed 12 mph    
Max Gust Speed -    
T = Trace of Precipitation, MM = Missing Value Source: NWS Daily Summary

Daily Weather History Graph

Daily Weather History Graph

Search for Another Location

Airport or City:

Trip Planner

Search our weather history database for the weather conditions in past years. The results will help you decide how hot, cold, wet, or windy it might be!

Date:

Astronomy

Mar. 29, 2013 Rise Set
Actual Time 7:29 AM CDT 8:11 PM CDT
Civil Twilight 6:58 AM CDT 8:42 PM CDT
Nautical Twilight 6:21 AM CDT 9:20 PM CDT
Astronomical Twilight 5:43 AM CDT 9:58 PM CDT
Moon 11:29 PM CDT (3/29) 8:27 AM CDT (3/29)
Length of Visible Light 13h 44m
Length of Day
12h 42m
Waning Gibbous, 93% of the Moon is Illuminated
Mar 29
Waning Gibbous
Apr 2
Last Quarter
Apr 10
New
Apr 18
First Quarter
Apr 25
Full

Hourly Weather History & Observations

Time (CDT) Temp. Windchill Dew Point Humidity Pressure Visibility Wind Dir Wind Speed Gust Speed Precip Events Conditions
12:52 AM 16.0 °F 8.8 °F 14.0 °F 92% 30.27 in - ESE 4.6 mph - N/A   Unknown
1:52 AM 15.1 °F 7.7 °F 12.9 °F 91% 30.26 in - East 4.6 mph - N/A   Unknown
2:52 AM 14.0 °F 8.2 °F 10.9 °F 88% 30.25 in - East 3.5 mph - N/A   Unknown
3:52 AM 12.0 °F - 10.9 °F 95% 30.23 in - Calm Calm - N/A   Unknown
4:52 AM 12.0 °F 5.9 °F 10.0 °F 92% 30.22 in - ENE 3.5 mph - N/A   Unknown
5:52 AM 10.9 °F - 8.1 °F 88% 30.21 in - Calm Calm - N/A   Unknown
6:52 AM 10.0 °F - 6.1 °F 84% 30.22 in - Calm Calm - N/A   Unknown
7:52 AM 10.0 °F 3.6 °F 7.0 °F 87% 30.22 in - NNE 3.5 mph - N/A   Unknown
8:52 AM 15.1 °F - 12.0 °F 88% 30.21 in - Calm Calm - N/A   Unknown
9:52 AM 19.9 °F - 17.1 °F 89% 30.19 in - Calm Calm - N/A   Unknown
10:52 AM 23.0 °F - 21.0 °F 92% 30.18 in - Calm Calm - N/A   Unknown
11:52 AM 27.0 °F - 25.0 °F 92% 30.15 in - Calm Calm - N/A   Unknown
12:52 PM 30.9 °F 25.2 °F 28.0 °F 89% 30.13 in - SSE 5.8 mph - N/A   Unknown
1:52 PM 34.0 °F 28.8 °F 30.9 °F 89% 30.10 in - SSE 5.8 mph - N/A   Unknown
2:52 PM 36.0 °F - 33.1 °F 89% 30.09 in - Calm Calm - N/A   Unknown
3:52 PM 37.9 °F 30.5 °F 33.1 °F 83% 30.09 in - NNW 11.5 mph - N/A   Unknown
4:52 PM 35.1 °F 27.4 °F 32.0 °F 89% 30.09 in - NNW 10.4 mph - N/A   Unknown
5:52 PM 36.0 °F 32.1 °F 32.0 °F 86% 30.09 in - NNE 4.6 mph - N/A   Unknown
6:52 PM 34.0 °F 28.0 °F 32.0 °F 92% 30.07 in - South 6.9 mph - 0.01 in   Unknown
7:52 PM 34.0 °F - 32.0 °F 92% 30.06 in - Calm Calm - N/A   Unknown
8:52 PM 33.1 °F - 30.9 °F 92% 30.06 in - Calm Calm - N/A   Unknown
9:52 PM 33.1 °F 28.7 °F 30.9 °F 92% 30.07 in - North 4.6 mph - N/A   Unknown
10:52 PM 30.9 °F 26.2 °F 28.9 °F 92% 30.07 in - NW 4.6 mph - N/A   Unknown
11:52 PM 32.0 °F - 30.0 °F 92% 30.06 in - Calm Calm - N/A   Unknown